,,Stat6,,Stat2,,Stat8,,Stat9,,Stat10,,Wind1,,Wind1,
time,status,PA1M_AVG,status,PR1M_SUM,status,RH1M_AVG,status,SR1M_AVG,status,TA1M_AVG,status,W1dAve1m,status,W1sAve1m,
2008-07-19, 00:00:00,VALID,917.629,VALID,0,VALID,100,VALID,-0.0849042,VALID,19.2056,VALID,34,VALID,0,
2008-07-19, 00:01:00,VALID,917.607,VALID,0,VALID,100,VALID,-0.0509425,VALID,19.2178,VALID,39,VALID,0,
2008-07-19, 00:02:00,VALID,917.591,VALID,0,VALID,100,VALID,-0.101885,VALID,19.2311,VALID,36,VALID,0,
2008-07-19, 00:03:00,VALID,917.566,VALID,0,VALID,100,VALID,-0.101885,VALID,19.267,VALID,16,VALID,0,
2008-07-19, 00:04:00,VALID,917.56,VALID,0,VALID,100,VALID,-0.0849042,VALID,19.2865,VALID,14,VALID,0,
2008-07-19, 00:05:00,VALID,917.542,VALID,0,VALID,100,VALID,-0.101885,VALID,19.3094,VALID,17,VALID,0,
2008-07-19, 00:06:00,VALID,917.539,VALID,0,VALID,100,VALID,-0.118866,VALID,19.3254,VALID,13,VALID,0,
2008-07-19, 00:07:00,VALID,917.526,VALID,0,VALID,100,VALID,-0.135847,VALID,19.3321,VALID,12,VALID,0.0951389,
2008-07-19, 00:08:00,VALID,917.5,VALID,0,VALID,100,VALID,-0.0679233,VALID,19.3194,VALID,12,VALID,0.0308689,
2008-07-19, 00:09:00,VALID,917.49,VALID,0,VALID,100,VALID,-0.0849042,VALID,19.3187,VALID,12,VALID,0.0491071,
2008-07-19, 00:10:00,VALID,917.463,VALID,0,VALID,100,VALID,-0.0509425,VALID,19.3084,VALID,13,VALID,0,
2008-07-19, 00:11:00,VALID,917.454,VALID,0,VALID,100,VALID,-0.169808,VALID,19.3364,VALID,13,VALID,0,
2008-07-19, 00:12:00,VALID,917.445,VALID,0,VALID,100,VALID,-0.20377,VALID,19.3326,VALID,13,VALID,0,
2008-07-19, 00:13:00,VALID,917.434,VALID,0,VALID,100,VALID,-0.20377,VALID,19.3496,VALID,11,VALID,0,
2008-07-19, 00:14:00,VALID,917.438,VALID,0,VALID,100,VALID,-0.152827,VALID,19.3458,VALID,9,VALID,0.046875,
2008-07-19, 00:15:00,VALID,917.437,VALID,0,VALID,100,VALID,-0.169808,VALID,19.3426,VALID,27,VALID,0.140439,
2008-07-19, 00:16:00,VALID,917.432,VALID,0,VALID,100,VALID,-0.186789,VALID,19.3396,VALID,28,VALID,0.120821,
2008-07-19, 00:17:00,VALID,917.424,VALID,0,VALID,100,VALID,-0.186789,VALID,19.3099,VALID,28,VALID,0.0828887,
2008-07-19, 00:18:00,VALID,917.424,VALID,0,VALID,100,VALID,-0.186789,VALID,19.2907,VALID,30,VALID,0.1337,
2008-07-19, 00:19:00,VALID,917.419,VALID,0,VALID,100,VALID,-0.20377,VALID,19.3007,VALID,46,VALID,0.139323,
2008-07-19, 00:20:00,VALID,917.411,VALID,0,VALID,100,VALID,-0.169808,VALID,19.2942,VALID,39,VALID,0.0736861,
2008-07-19, 00:21:00,VALID,917.396,VALID,0,VALID,100,VALID,-0.135847,VALID,19.2809,VALID,43,VALID,0,
2008-07-19, 00:22:00,VALID,917.391,VALID,0,VALID,100,VALID,-0.152827,VALID,19.2844,VALID,43,VALID,0,
2008-07-19, 00:23:00,VALID,917.38,VALID,0,VALID,100,VALID,-0.118866,VALID,19.2612,VALID,49,VALID,0.00114329,
2008-07-19, 00:24:00,VALID,917.377,VALID,0,VALID,100,VALID,-0.169808,VALID,19.2545,VALID,51,VALID,0.00218023,
2008-07-19, 00:25:00,VALID,917.375,VALID,0,VALID,100,VALID,-0.152827,VALID,19.2582,VALID,44,VALID,0,
2008-07-19, 00:26:00,VALID,917.368,VALID,0,VALID,100,VALID,-0.152827,VALID,19.2515,VALID,29,VALID,0,
2008-07-19, 00:27:00,VALID,917.351,VALID,0,VALID,100,VALID,-0.169808,VALID,19.2545,VALID,29,VALID,0,
2008-07-19, 00:28:00,VALID,917.351,VALID,0,VALID,100,VALID,-0.118866,VALID,19.2645,VALID,21,VALID,0,
2008-07-19, 00:29:00,VALID,917.352,VALID,0,VALID,100,VALID,-0.135847,VALID,19.2645,VALID,16,VALID,0,
2008-07-19, 00:30:00,VALID,917.356,VALID,0,VALID,100,VALID,-0.169808,VALID,19.2617,VALID,21,VALID,0,
2008-07-19, 00:31:00,VALID,917.363,VALID,0,VALID,100,VALID,-0.135847,VALID,19.2318,VALID,21,VALID,0,
2008-07-19, 00:32:00,VALID,917.354,VALID,0,VALID,100,VALID,-0.186789,VALID,19.2393,VALID,16,VALID,0,
2008-07-19, 00:33:00,VALID,917.353,VALID,0,VALID,100,VALID,-0.152827,VALID,19.2225,VALID,28,VALID,0,
2008-07-19, 00:34:00,VALID,917.351,VALID,0,VALID,100,VALID,-0.186789,VALID,19.2161,VALID,26,VALID,0.469531,
2008-07-19, 00:35:00,VALID,917.359,VALID,0,VALID,100,VALID,-0.152827,VALID,19.2096,VALID,38,VALID,0.177649,
2008-07-19, 00:36:00,VALID,917.365,VALID,0,VALID,100,VALID,-0.186789,VALID,19.2198,VALID,33,VALID,0,
2008-07-19, 00:37:00,VALID,917.365,VALID,0,VALID,100,VALID,-0.20377,VALID,19.1901,VALID,32,VALID,0,
2008-07-19, 00:38:00,VALID,917.374,VALID,0,VALID,100,VALID,-0.186789,VALID,19.1871,VALID,32,VALID,0,
2008-07-19, 00:39:00,VALID,917.371,VALID,0,VALID,100,VALID,-0.20377,VALID,19.2138,VALID,32,VALID,0,
2008-07-19, 00:40:00,VALID,917.366,VALID,0,VALID,100,VALID,-0.20377,VALID,19.1966,VALID,32,VALID,0,
2008-07-19, 00:41:00,VALID,917.364,VALID,0,VALID,100,VALID,-0.0679233,VALID,19.2019,VALID,32,VALID,0,
2008-07-19, 00:42:00,VALID,917.372,VALID,0,VALID,100,VALID,-0.0509425,VALID,19.1854,VALID,32,VALID,0,
2008-07-19, 00:43:00,VALID,917.363,VALID,0,VALID,100,VALID,-0.0509425,VALID,19.1886,VALID,32,VALID,0,
2008-07-19, 00:44:00,VALID,917.339,VALID,0,VALID,100,VALID,-0.0509425,VALID,19.1852,VALID,32,VALID,0,
2008-07-19, 00:45:00,VALID,917.335,VALID,0,VALID,100,VALID,-0.101885,VALID,19.1859,VALID,32,VALID,0,
2008-07-19, 00:46:00,VALID,917.3,VALID,0,VALID,100,VALID,-0.101885,VALID,19.1564,VALID,41,VALID,0,
2008-07-19, 00:47:00,VALID,917.282,VALID,0,VALID,100,VALID,-0.0849042,VALID,19.1397,VALID,78,VALID,0,
2008-07-19, 00:48:00,VALID,917.268,VALID,0,VALID,100,VALID,-0.0509425,VALID,19.1203,VALID,80,VALID,0,
2008-07-19, 00:49:00,VALID,917.265,VALID,0,VALID,100,VALID,-0.101885,VALID,19.0948,VALID,90,VALID,0,
2008-07-19, 00:50:00,VALID,917.249,VALID,0,VALID,100,VALID,-0.0849042,VALID,19.0881,VALID,112,VALID,0,
2008-07-19, 00:51:00,VALID,917.24,VALID,0,VALID,100,VALID,-0.0509425,VALID,19.0853,VALID,118,VALID,0,
2008-07-19, 00:52:00,VALID,917.221,VALID,0,VALID,100,VALID,-0.0679233,VALID,19.0656,VALID,128,VALID,0,
2008-07-19, 00:53:00,VALID,917.229,VALID,0,VALID,100,VALID,-0.0509425,VALID,19.0329,VALID,147,VALID,0,
2008-07-19, 00:54:00,VALID,917.217,VALID,0,VALID,100,VALID,-0.0169808,VALID,18.9935,VALID,154,VALID,0.146205,
2008-07-19, 00:55:00,VALID,917.199,VALID,0,VALID,100,VALID,-0.0339617,VALID,18.9673,VALID,158,VALID,0.533794,
2008-07-19, 00:56:00,VALID,917.194,VALID,0,VALID,100,VALID,-0.0339617,VALID,18.9286,VALID,157,VALID,0.0487847,
2008-07-19, 00:57:00,VALID,917.185,VALID,0,VALID,100,VALID,-0.0169808,VALID,18.9221,VALID,158,VALID,0,
2008-07-19, 00:58:00,VALID,917.185,VALID,0,VALID,100,VALID,-0.0169808,VALID,18.8732,VALID,159,VALID,0,
2008-07-19, 00:59:00,VALID,917.187,VALID,0,VALID,100,VALID,-0.0339617,VALID,18.851,VALID,166,VALID,0.486421,
2008-07-19, 01:00:00,VALID,917.187,VALID,0,VALID,100,VALID,-0.0339617,VALID,18.8056,VALID,169,VALID,0.900799,
2008-07-19, 01:01:00,VALID,917.177,VALID,0,VALID,100,VALID,-0.0339617,VALID,18.7766,VALID,164,VALID,0.894985,
2008-07-19, 01:02:00,VALID,917.175,VALID,0,VALID,100,VALID,-0.0339617,VALID,18.7662,VALID,163,VALID,0.8125,
2008-07-19, 01:03:00,VALID,917.174,VALID,0,VALID,100,VALID,-0.0679233,VALID,18.7826,VALID,162,VALID,0.804178,
2008-07-19, 01:04:00,VALID,917.161,VALID,0,VALID,100,VALID,-0.101885,VALID,18.7734,VALID,164,VALID,0.20476,
2008-07-19, 01:05:00,VALID,917.153,VALID,0,VALID,100,VALID,-0.152827,VALID,18.7748,VALID,164,VALID,0,
2008-07-19, 01:06:00,VALID,917.152,VALID,0,VALID,100,VALID,-0.152827,VALID,18.7746,VALID,164,VALID,0,
2008-07-19, 01:07:00,VALID,917.126,VALID,0,VALID,100,VALID,-0.169808,VALID,18.7813,VALID,164,VALID,0,
2008-07-19, 01:08:00,VALID,917.138,VALID,0,VALID,100,VALID,-0.169808,VALID,18.7776,VALID,164,VALID,0,
2008-07-19, 01:09:00,VALID,917.134,VALID,0,VALID,100,VALID,-0.169808,VALID,18.785,VALID,164,VALID,0,
2008-07-19, 01:10:00,VALID,917.113,VALID,0,VALID,100,VALID,-0.169808,VALID,18.7648,VALID,164,VALID,0,
2008-07-19, 01:11:00,VALID,917.099,VALID,0,VALID,100,VALID,-0.101885,VALID,18.7576,VALID,164,VALID,0,
2008-07-19, 01:12:00,VALID,917.079,VALID,0,VALID,100,VALID,-0.101885,VALID,18.7379,VALID,164,VALID,0,
2008-07-19, 01:13:00,VALID,917.066,VALID,0,VALID,100,VALID,-0.101885,VALID,18.7215,VALID,164,VALID,0,
2008-07-19, 01:14:00,VALID,917.056,VALID,0,VALID,100,VALID,-0.0679233,VALID,18.6856,VALID,164,VALID,0,
2008-07-19, 01:15:00,VALID,917.045,VALID,0,VALID,100,VALID,-0.0679233,VALID,18.5982,VALID,164,VALID,0,
2008-07-19, 01:16:00,VALID,917.04,VALID,0,VALID,100,VALID,-0.0509425,VALID,18.5718,VALID,161,VALID,0,
2008-07-19, 01:17:00,VALID,917.04,VALID,0,VALID,100,VALID,-0.0679233,VALID,18.6142,VALID,138,VALID,0,
2008-07-19, 01:18:00,VALID,917.037,VALID,0,VALID,100,VALID,-0.0849042,VALID,18.6629,VALID,129,VALID,0,
2008-07-19, 01:19:00,VALID,917.026,VALID,0,VALID,100,VALID,-0.0169808,VALID,18.7083,VALID,128,VALID,0,
2008-07-19, 01:20:00,VALID,917.012,VALID,0,VALID,100,VALID,-0.0509425,VALID,18.718,VALID,123,VALID,0,
2008-07-19, 01:21:00,VALID,916.997,VALID,0,VALID,100,VALID,-0.0509425,VALID,18.7277,VALID,120,VALID,0,
2008-07-19, 01:22:00,VALID,916.968,VALID,0,VALID,100,VALID,-0.0679233,VALID,18.7502,VALID,115,VALID,0,
2008-07-19, 01:23:00,VALID,916.952,VALID,0,VALID,100,VALID,-0.0339617,VALID,18.7697,VALID,111,VALID,0,
2008-07-19, 01:24:00,VALID,916.924,VALID,0,VALID,100,VALID,-0.0169808,VALID,18.7534,VALID,105,VALID,0,
2008-07-19, 01:25:00,VALID,916.903,VALID,0,VALID,100,VALID,0,VALID,18.7402,VALID,91,VALID,0,
2008-07-19, 01:26:00,VALID,916.886,VALID,0,VALID,100,VALID,-0.0339617,VALID,18.7565,VALID,91,VALID,0,
2008-07-19, 01:27:00,VALID,916.875,VALID,0,VALID,100,VALID,-0.0339617,VALID,18.7831,VALID,94,VALID,0,
2008-07-19, 01:28:00,VALID,916.864,VALID,0,VALID,100,VALID,-0.0509425,VALID,18.7729,VALID,94,VALID,0,
2008-07-19, 01:29:00,VALID,916.858,VALID,0,VALID,100,VALID,-0.0509425,VALID,18.7604,VALID,94,VALID,0,
2008-07-19, 01:30:00,VALID,916.846,VALID,0,VALID,100,VALID,-0.0849042,VALID,18.7637,VALID,104,VALID,0,
2008-07-19, 01:31:00,VALID,916.84,VALID,0,VALID,100,VALID,-0.101885,VALID,18.7148,VALID,139,VALID,0,
2008-07-19, 01:32:00,VALID,916.827,VALID,0,VALID,100,VALID,-0.101885,VALID,18.6828,VALID,131,VALID,0.12309,
2008-07-19, 01:33:00,VALID,916.831,VALID,0,VALID,100,VALID,-0.0849042,VALID,18.6788,VALID,135,VALID,0.340554,
2008-07-19, 01:34:00,VALID,916.821,VALID,0,VALID,100,VALID,-0.0849042,VALID,18.6334,VALID,124,VALID,0,
2008-07-19, 01:35:00,VALID,916.835,VALID,0,VALID,100,VALID,-0.0679233,VALID,18.5818,VALID,125,VALID,0,
2008-07-19, 01:36:00,VALID,916.853,VALID,0,VALID,100,VALID,-0.0679233,VALID,18.5426,VALID,130,VALID,0,
2008-07-19, 01:37:00,VALID,916.87,VALID,0,VALID,100,VALID,-0.0849042,VALID,18.5296,VALID,124,VALID,0,
2008-07-19, 01:38:00,VALID,916.866,VALID,0,VALID,100,VALID,-0.0679233,VALID,18.5072,VALID,126,VALID,0.0141715,
2008-07-19, 01:39:00,VALID,916.869,VALID,0,VALID,100,VALID,-0.0679233,VALID,18.4807,VALID,123,VALID,0.0106027,
2008-07-19, 01:40:00,VALID,916.86,VALID,0,VALID,100,VALID,-0.0679233,VALID,18.4712,VALID,120,VALID,0.0525073,
2008-07-19, 01:41:00,VALID,916.849,VALID,0,VALID,100,VALID,-0.135847,VALID,18.443,VALID,125,VALID,0,
2008-07-19, 01:42:00,VALID,916.831,VALID,0,VALID,100,VALID,-0.152827,VALID,18.4307,VALID,121,VALID,0,
2008-07-19, 01:43:00,VALID,916.826,VALID,0,VALID,100,VALID,-0.186789,VALID,18.4015,VALID,108,VALID,0,
2008-07-19, 01:44:00,VALID,916.818,VALID,0,VALID,100,VALID,-0.169808,VALID,18.3524,VALID,103,VALID,0.0628634,
2008-07-19, 01:45:00,VALID,916.823,VALID,0,VALID,100,VALID,-0.169808,VALID,18.3396,VALID,90,VALID,0.422602,
2008-07-19, 01:46:00,VALID,916.825,VALID,0,VALID,100,VALID,-0.20377,VALID,18.3531,VALID,99,VALID,0.891387,
2008-07-19, 01:47:00,VALID,916.835,VALID,0,VALID,100,VALID,-0.152827,VALID,18.395,VALID,114,VALID,0.946584,
2008-07-19, 01:48:00,VALID,916.846,VALID,0,VALID,100,VALID,-0.169808,VALID,18.437,VALID,112,VALID,0.84375,
2008-07-19, 01:49:00,VALID,916.847,VALID,0,VALID,100,VALID,-0.186789,VALID,18.4794,VALID,112,VALID,0.547385,
2008-07-19, 01:50:00,VALID,916.867,VALID,0,VALID,100,VALID,-0.152827,VALID,18.4921,VALID,109,VALID,0.0800781,
2008-07-19, 01:51:00,VALID,916.864,VALID,0,VALID,100,VALID,-0.152827,VALID,18.4986,VALID,119,VALID,0,
2008-07-19, 01:52:00,VALID,916.892,VALID,0,VALID,100,VALID,-0.135847,VALID,18.5051,VALID,137,VALID,0,
2008-07-19, 01:53:00,VALID,916.891,VALID,0,VALID,100,VALID,-0.135847,VALID,18.5083,VALID,146,VALID,0,
2008-07-19, 01:54:00,VALID,916.898,VALID,0,VALID,100,VALID,-0.169808,VALID,18.5111,VALID,145,VALID,0,
2008-07-19, 01:55:00,VALID,916.895,VALID,0,VALID,100,VALID,-0.186789,VALID,18.534,VALID,145,VALID,0,
2008-07-19, 01:56:00,VALID,916.885,VALID,0,VALID,100,VALID,-0.0849042,VALID,18.5333,VALID,145,VALID,0,
2008-07-19, 01:57:00,VALID,916.872,VALID,0,VALID,100,VALID,-0.101885,VALID,18.55,VALID,146,VALID,0,
2008-07-19, 01:58:00,VALID,916.867,VALID,0,VALID,100,VALID,-0.0849042,VALID,18.5428,VALID,146,VALID,0,
2008-07-19, 01:59:00,VALID,916.853,VALID,0,VALID,100,VALID,-0.101885,VALID,18.5333,VALID,146,VALID,0,
2008-07-19, 02:00:00,VALID,916.843,VALID,0,VALID,100,VALID,-0.101885,VALID,18.5398,VALID,146,VALID,0,
2008-07-19, 02:01:00,VALID,916.842,VALID,0,VALID,100,VALID,-0.152827,VALID,18.56,VALID,156,VALID,0,
2008-07-19, 02:02:00,VALID,916.83,VALID,0,VALID,100,VALID,-0.135847,VALID,18.5727,VALID,159,VALID,0,
2008-07-19, 02:03:00,VALID,916.826,VALID,0,VALID,100,VALID,-0.152827,VALID,18.5815,VALID,159,VALID,0,
2008-07-19, 02:04:00,VALID,916.834,VALID,0,VALID,100,VALID,-0.0849042,VALID,18.6077,VALID,159,VALID,0,
2008-07-19, 02:05:00,VALID,916.84,VALID,0,VALID,100,VALID,-0.101885,VALID,18.6204,VALID,159,VALID,0,
2008-07-19, 02:06:00,VALID,916.847,VALID,0,VALID,100,VALID,-0.0679233,VALID,18.6436,VALID,159,VALID,0,
2008-07-19, 02:07:00,VALID,916.85,VALID,0,VALID,100,VALID,-0.0849042,VALID,18.6399,VALID,159,VALID,0,
2008-07-19, 02:08:00,VALID,916.851,VALID,0,VALID,100,VALID,-0.135847,VALID,18.6401,VALID,159,VALID,0,
2008-07-19, 02:09:00,VALID,916.839,VALID,0,VALID,100,VALID,-0.101885,VALID,18.6464,VALID,159,VALID,0,
2008-07-19, 02:10:00,VALID,916.826,VALID,0,VALID,100,VALID,-0.0679233,VALID,18.6559,VALID,159,VALID,0,
2008-07-19, 02:11:00,VALID,916.796,VALID,0,VALID,100,VALID,-0.0679233,VALID,18.6726,VALID,159,VALID,0,
2008-07-19, 02:12:00,VALID,916.749,VALID,0,VALID,100,VALID,-0.101885,VALID,18.6691,VALID,159,VALID,0,
2008-07-19, 02:13:00,VALID,916.707,VALID,0,VALID,100,VALID,-0.101885,VALID,18.6564,VALID,159,VALID,0,
2008-07-19, 02:14:00,VALID,916.678,VALID,0,VALID,100,VALID,-0.101885,VALID,18.6596,VALID,159,VALID,0,
2008-07-19, 02:15:00,VALID,916.661,VALID,0,VALID,100,VALID,-0.0849042,VALID,18.6401,VALID,159,VALID,0,
2008-07-19, 02:16:00,VALID,916.637,VALID,0,VALID,100,VALID,-0.118866,VALID,18.6399,VALID,159,VALID,0,
2008-07-19, 02:17:00,VALID,916.645,VALID,0,VALID,100,VALID,-0.0849042,VALID,18.6237,VALID,159,VALID,0,
2008-07-19, 02:18:00,VALID,916.645,VALID,0,VALID,100,VALID,-0.101885,VALID,18.6269,VALID,159,VALID,0,
2008-07-19, 02:19:00,VALID,916.659,VALID,0,VALID,100,VALID,-0.0679233,VALID,18.6237,VALID,188,VALID,0,
2008-07-19, 02:20:00,VALID,916.661,VALID,0,VALID,100,VALID,-0.0509425,VALID,18.6202,VALID,262,VALID,0,
2008-07-19, 02:21:00,VALID,916.645,VALID,0,VALID,100,VALID,-0.0849042,VALID,18.6269,VALID,270,VALID,0,
2008-07-19, 02:22:00,VALID,916.657,VALID,0,VALID,100,VALID,-0.0679233,VALID,18.6235,VALID,270,VALID,0,
2008-07-19, 02:23:00,VALID,916.669,VALID,0,VALID,100,VALID,-0.101885,VALID,18.6367,VALID,270,VALID,0,
2008-07-19, 02:24:00,VALID,916.659,VALID,0,VALID,100,VALID,-0.0849042,VALID,18.6529,VALID,293,VALID,0,
2008-07-19, 02:25:00,VALID,916.664,VALID,0,VALID,100,VALID,-0.0679233,VALID,18.6626,VALID,301,VALID,0,
2008-07-19, 02:26:00,VALID,916.665,VALID,0,VALID,100,VALID,-0.0509425,VALID,18.6334,VALID,301,VALID,0,
2008-07-19, 02:27:00,VALID,916.636,VALID,0,VALID,100,VALID,-0.101885,VALID,18.6302,VALID,301,VALID,0,
2008-07-19, 02:28:00,VALID,916.627,VALID,0,VALID,100,VALID,-0.0679233,VALID,18.6235,VALID,301,VALID,0,
2008-07-19, 02:29:00,VALID,916.59,VALID,0,VALID,100,VALID,-0.118866,VALID,18.6369,VALID,301,VALID,0,
2008-07-19, 02:30:00,VALID,916.572,VALID,0,VALID,100,VALID,-0.0679233,VALID,18.6496,VALID,301,VALID,0,
2008-07-19, 02:31:00,VALID,916.549,VALID,0,VALID,100,VALID,-0.0849042,VALID,18.6464,VALID,301,VALID,0,
2008-07-19, 02:32:00,VALID,916.533,VALID,0,VALID,100,VALID,-0.118866,VALID,18.6661,VALID,301,VALID,0,
2008-07-19, 02:33:00,VALID,916.512,VALID,0,VALID,100,VALID,-0.101885,VALID,18.6661,VALID,301,VALID,0,
2008-07-19, 02:34:00,VALID,916.499,VALID,0,VALID,100,VALID,-0.101885,VALID,18.6659,VALID,301,VALID,0,
2008-07-19, 02:35:00,VALID,916.483,VALID,0,VALID,100,VALID,-0.101885,VALID,18.6793,VALID,301,VALID,0,
2008-07-19, 02:36:00,VALID,916.468,VALID,0,VALID,100,VALID,-0.0849042,VALID,18.6923,VALID,301,VALID,0,
2008-07-19, 02:37:00,VALID,916.462,VALID,0,VALID,100,VALID,-0.0849042,VALID,18.6918,VALID,301,VALID,0,
2008-07-19, 02:38:00,VALID,916.466,VALID,0,VALID,100,VALID,-0.0679233,VALID,18.6853,VALID,326,VALID,0,
2008-07-19, 02:39:00,VALID,916.476,VALID,0,VALID,100,VALID,-0.101885,VALID,18.6691,VALID,328,VALID,0,
2008-07-19, 02:40:00,VALID,916.479,VALID,0,VALID,100,VALID,-0.0509425,VALID,18.6299,VALID,328,VALID,0,
2008-07-19, 02:41:00,VALID,916.478,VALID,0,VALID,100,VALID,-0.0679233,VALID,18.6269,VALID,328,VALID,0,
2008-07-19, 02:42:00,VALID,916.487,VALID,0,VALID,100,VALID,-0.0849042,VALID,18.6304,VALID,328,VALID,0,
2008-07-19, 02:43:00,VALID,916.477,VALID,0,VALID,100,VALID,-0.118866,VALID,18.6272,VALID,328,VALID,0,
2008-07-19, 02:44:00,VALID,916.463,VALID,0,VALID,100,VALID,-0.101885,VALID,18.6334,VALID,328,VALID,0,
2008-07-19, 02:45:00,VALID,916.468,VALID,0,VALID,100,VALID,-0.118866,VALID,18.6499,VALID,328,VALID,0,
2008-07-19, 02:46:01,VALID,916.463,VALID,0,VALID,100,VALID,-0.0849042,VALID,18.6531,VALID,328,VALID,0,
2008-07-19, 02:47:01,VALID,916.444,VALID,0,VALID,100,VALID,-0.101885,VALID,18.6397,VALID,328,VALID,0,
2008-07-19, 02:48:00,VALID,916.438,VALID,0,VALID,100,VALID,-0.0679233,VALID,18.6172,VALID,328,VALID,0,
2008-07-19, 02:49:00,VALID,916.425,VALID,0,VALID,100,VALID,-0.0849042,VALID,18.6304,VALID,328,VALID,0,
2008-07-19, 02:50:01,VALID,916.406,VALID,0,VALID,100,VALID,-0.0679233,VALID,18.6337,VALID,344,VALID,0,
2008-07-19, 02:51:00,VALID,916.415,VALID,0,VALID,100,VALID,-0.101885,VALID,18.6334,VALID,23,VALID,0,
2008-07-19, 02:52:00,VALID,916.41,VALID,0,VALID,100,VALID,-0.0849042,VALID,18.6274,VALID,27,VALID,0,
2008-07-19, 02:53:01,VALID,916.396,VALID,0,VALID,100,VALID,-0.101885,VALID,18.6012,VALID,27,VALID,0,
2008-07-19, 02:54:00,VALID,916.392,VALID,0,VALID,100,VALID,-0.0849042,VALID,18.5945,VALID,27,VALID,0,
2008-07-19, 02:55:00,VALID,916.391,VALID,0,VALID,100,VALID,-0.101885,VALID,18.5882,VALID,27,VALID,0,
2008-07-19, 02:56:00,VALID,916.376,VALID,0,VALID,100,VALID,-0.152827,VALID,18.5859,VALID,27,VALID,0,
2008-07-19, 02:57:01,VALID,916.363,VALID,0,VALID,100,VALID,-0.118866,VALID,18.5922,VALID,27,VALID,0,
2008-07-19, 02:58:00,VALID,916.352,VALID,0,VALID,100,VALID,-0.186789,VALID,18.6024,VALID,27,VALID,0,
2008-07-19, 02:59:00,VALID,916.33,VALID,0,VALID,100,VALID,-0.135847,VALID,18.5894,VALID,27,VALID,0,
2008-07-19, 03:00:01,VALID,916.314,VALID,0,VALID,100,VALID,-0.220751,VALID,18.5637,VALID,27,VALID,0,
2008-07-19, 03:01:00,VALID,916.298,VALID,0,VALID,100,VALID,-0.169808,VALID,18.5537,VALID,27,VALID,0,
2008-07-19, 03:02:00,VALID,916.286,VALID,0,VALID,100,VALID,-0.118866,VALID,18.5535,VALID,27,VALID,0,
2008-07-19, 03:03:00,VALID,916.261,VALID,0,VALID,100,VALID,-0.135847,VALID,18.534,VALID,27,VALID,0,
2008-07-19, 03:04:00,VALID,916.248,VALID,0,VALID,100,VALID,-0.135847,VALID,18.5278,VALID,34,VALID,0,
2008-07-19, 03:05:00,VALID,916.226,VALID,0,VALID,100,VALID,-0.152827,VALID,18.4981,VALID,44,VALID,0,
2008-07-19, 03:06:01,VALID,916.223,VALID,0,VALID,100,VALID,-0.135847,VALID,18.4659,VALID,44,VALID,0,
2008-07-19, 03:07:00,VALID,916.193,VALID,0,VALID,100,VALID,-0.152827,VALID,18.4529,VALID,44,VALID,0,
2008-07-19, 03:08:00,VALID,916.178,VALID,0,VALID,100,VALID,-0.186789,VALID,18.4462,VALID,44,VALID,0,
2008-07-19, 03:09:00,VALID,916.157,VALID,0,VALID,100,VALID,-0.169808,VALID,18.4497,VALID,44,VALID,0,
2008-07-19, 03:10:00,VALID,916.146,VALID,0,VALID,100,VALID,-0.152827,VALID,18.4532,VALID,44,VALID,0,
2008-07-19, 03:11:00,VALID,916.119,VALID,0,VALID,100,VALID,-0.0849042,VALID,18.4458,VALID,44,VALID,0,
2008-07-19, 03:12:00,VALID,916.097,VALID,0,VALID,100,VALID,-0.0849042,VALID,18.439,VALID,44,VALID,0,
2008-07-19, 03:13:00,VALID,916.086,VALID,0,VALID,100,VALID,-0.0679233,VALID,18.4233,VALID,44,VALID,0,
2008-07-19, 03:14:00,VALID,916.087,VALID,0,VALID,100,VALID,-0.0849042,VALID,18.4066,VALID,61,VALID,0,
2008-07-19, 03:15:01,VALID,916.069,VALID,0,VALID,100,VALID,-0.101885,VALID,18.3772,VALID,108,VALID,0,
2008-07-19, 03:16:01,VALID,916.06,VALID,0,VALID,100,VALID,-0.0509425,VALID,18.3482,VALID,119,VALID,0,
2008-07-19, 03:17:00,VALID,916.069,VALID,0,VALID,100,VALID,-0.101885,VALID,18.335,VALID,107,VALID,0,
2008-07-19, 03:18:00,VALID,916.069,VALID,0,VALID,100,VALID,-0.0679233,VALID,18.3125,VALID,95,VALID,0,
2008-07-19, 03:19:00,VALID,916.084,VALID,0,VALID,100,VALID,-0.0679233,VALID,18.2898,VALID,95,VALID,0,
2008-07-19, 03:20:00,VALID,916.083,VALID,0,VALID,100,VALID,-0.0339617,VALID,18.2991,VALID,93,VALID,0.0719866,
2008-07-19, 03:21:01,VALID,916.104,VALID,0,VALID,100,VALID,-0.101885,VALID,18.3058,VALID,97,VALID,0,
2008-07-19, 03:22:00,VALID,916.111,VALID,0,VALID,100,VALID,-0.0339617,VALID,18.3285,VALID,106,VALID,0,
2008-07-19, 03:23:00,VALID,916.09,VALID,0,VALID,100,VALID,-0.0679233,VALID,18.322,VALID,106,VALID,0,
2008-07-19, 03:24:00,VALID,916.093,VALID,0,VALID,100,VALID,-0.0849042,VALID,18.3318,VALID,106,VALID,0,
2008-07-19, 03:25:01,VALID,916.079,VALID,0,VALID,100,VALID,-0.0339617,VALID,18.3123,VALID,120,VALID,0,
2008-07-19, 03:26:00,VALID,916.066,VALID,0,VALID,100,VALID,-0.169808,VALID,18.3005,VALID,121,VALID,0,
2008-07-19, 03:27:01,VALID,916.058,VALID,0,VALID,100,VALID,-0.169808,VALID,18.281,VALID,129,VALID,0,
2008-07-19, 03:28:00,VALID,916.046,VALID,0,VALID,100,VALID,-0.152827,VALID,18.265,VALID,123,VALID,0,
2008-07-19, 03:29:00,VALID,916.036,VALID,0,VALID,100,VALID,-0.186789,VALID,18.2683,VALID,121,VALID,0,
2008-07-19, 03:30:00,VALID,916.009,VALID,0,VALID,100,VALID,-0.152827,VALID,18.275,VALID,115,VALID,0,
2008-07-19, 03:31:00,VALID,916.006,VALID,0,VALID,100,VALID,-0.169808,VALID,18.278,VALID,117,VALID,0,
2008-07-19, 03:32:01,VALID,915.996,VALID,0,VALID,100,VALID,-0.135847,VALID,18.2813,VALID,123,VALID,0,
2008-07-19, 03:33:00,VALID,915.982,VALID,0,VALID,100,VALID,-0.169808,VALID,18.2975,VALID,129,VALID,0,
2008-07-19, 03:34:00,VALID,915.984,VALID,0,VALID,100,VALID,-0.135847,VALID,18.3042,VALID,138,VALID,0,
2008-07-19, 03:35:00,VALID,915.964,VALID,0,VALID,100,VALID,-0.20377,VALID,18.3007,VALID,138,VALID,0,
2008-07-19, 03:36:01,VALID,915.957,VALID,0,VALID,100,VALID,-0.169808,VALID,18.3077,VALID,138,VALID,0,
2008-07-19, 03:37:01,VALID,915.955,VALID,0,VALID,100,VALID,-0.237732,VALID,18.3042,VALID,125,VALID,0,
2008-07-19, 03:38:01,VALID,915.957,VALID,0,VALID,100,VALID,-0.20377,VALID,18.2813,VALID,90,VALID,0,
2008-07-19, 03:39:01,VALID,915.937,VALID,0,VALID,100,VALID,-0.135847,VALID,18.2813,VALID,92,VALID,0,
2008-07-19, 03:40:00,VALID,915.917,VALID,0,VALID,100,VALID,-0.186789,VALID,18.2977,VALID,100,VALID,0,
2008-07-19, 03:41:01,VALID,915.895,VALID,0,VALID,100,VALID,-0.0679233,VALID,18.3023,VALID,107,VALID,0,
2008-07-19, 03:42:01,VALID,915.876,VALID,0,VALID,100,VALID,-0.0339617,VALID,18.3253,VALID,94,VALID,0,
2008-07-19, 03:43:01,VALID,915.869,VALID,0,VALID,100,VALID,-0.101885,VALID,18.3195,VALID,95,VALID,0,
2008-07-19, 03:44:01,VALID,915.846,VALID,0,VALID,100,VALID,-0.118866,VALID,18.3158,VALID,149,VALID,0,
2008-07-19, 03:45:01,VALID,915.853,VALID,0,VALID,100,VALID,-0.101885,VALID,18.319,VALID,173,VALID,0,
2008-07-19, 03:46:01,VALID,915.828,VALID,0,VALID,100,VALID,-0.0849042,VALID,18.3285,VALID,164,VALID,0,
2008-07-19, 03:47:01,VALID,915.842,VALID,0,VALID,100,VALID,-0.0679233,VALID,18.3385,VALID,160,VALID,0,
2008-07-19, 03:48:00,VALID,915.842,VALID,0,VALID,100,VALID,-0.0849042,VALID,18.3577,VALID,160,VALID,0,